Kahului, HI

2:59 PM HST on July 22, 2017 (GMT -1000)
Kahului

Weather History for PHOG - April, 2013

Change the Weather History Date:

Saturday, April 20, 2013

  Actual Average Record
Temperature  
Mean Temperature 76 °F 74 °F  
Max Temperature 87 °F 83 °F 88 °F (2002)
Min Temperature 64 °F 66 °F 59 °F (1954)
Degree Days  
Heating Degree Days 0 0  
Month to date heating degree days 0 0  
Since 1 July heating degree days 0 0  
Cooling Degree Days 11 9  
Month to date cooling degree days 195 180  
Year to date cooling degree days 861 834  
Growing Degree Days 25 (Base 50)    
Moisture  
Dew Point 72 °F    
Average Humidity 89    
Maximum Humidity 100    
Minimum Humidity 77    
Precipitation  
Precipitation T in 0.05 in 0.65 in (2009)
Month to date precipitation 0.01 1.18  
Year to date precipitation 6.14 8.39  
Snow  
Snow 0.00 in - - ()
Month to date snowfall 0.0  
Since 1 July snowfall 0.0  
Snow Depth 0.00 in    
Sea Level Pressure  
Sea Level Pressure 30.07 in    
Wind  
Wind Speed 6 mph (NE)    
Max Wind Speed 17 mph    
Max Gust Speed 21 mph    
Visibility 10 miles    
Events      
T = Trace of Precipitation, MM = Missing Value Source: NWS Daily Summary

Daily Weather History Graph

Daily Weather History Graph

Search for Another Location

Airport or City:

Trip Planner

Search our weather history database for the weather conditions in past years. The results will help you decide how hot, cold, wet, or windy it might be!

Date:

Astronomy

Apr. 20, 2013 Rise Set
Actual Time 6:02 AM HST 6:46 PM HST
Civil Twilight 5:39 AM HST 7:09 PM HST
Nautical Twilight 5:13 AM HST 7:36 PM HST
Astronomical Twilight 4:45 AM HST 8:03 PM HST
Moon 2:17 PM HST (4/20) 2:18 AM HST (4/20)
Length of Visible Light 13h 29m
Length of Day
12h 43m
Waxing Gibbous, 73% of the Moon is Illuminated
Apr 20
Waxing Gibbous
Apr 25
Full
May 2
Last Quarter
May 9
New
May 17
First Quarter

Hourly Weather History & Observations

Time (HST) Temp. Heat Index Dew Point Humidity Pressure Visibility Wind Dir Wind Speed Gust Speed Precip Events Conditions
12:54 AM 68.0 °F - 68.0 °F 100% 30.09 in 10.0 mi Calm Calm - N/A   Scattered Clouds
1:54 AM 66.9 °F - 66.9 °F 100% 30.07 in 10.0 mi Calm Calm - N/A   Mostly Cloudy
2:54 AM 66.9 °F - 66.9 °F 100% 30.06 in 10.0 mi Calm Calm - N/A   Partly Cloudy
3:54 AM 66.0 °F - 66.0 °F 100% 30.05 in 10.0 mi SE 6.9 mph - N/A   Partly Cloudy
4:54 AM 64.9 °F - 64.9 °F 100% 30.06 in 10.0 mi SSE 4.6 mph - N/A   Clear
5:54 AM 64.0 °F - 64.0 °F 100% 30.08 in 10.0 mi SE 6.9 mph - N/A   Clear
6:54 AM 66.0 °F - 66.0 °F 100% 30.09 in 10.0 mi SSE 4.6 mph - N/A   Partly Cloudy
7:54 AM 73.0 °F - 72.0 °F 96% 30.10 in 10.0 mi Calm Calm - N/A   Partly Cloudy
8:54 AM 79.0 °F - 73.0 °F 82% 30.10 in 10.0 mi North 4.6 mph - N/A   Partly Cloudy
9:54 AM 82.0 °F 88.6 °F 75.0 °F 79% 30.10 in 10.0 mi NNW 5.8 mph - N/A   Partly Cloudy
10:54 AM 82.9 °F 90.8 °F 75.9 °F 79% 30.10 in 10.0 mi North 8.1 mph - N/A   Partly Cloudy
11:54 AM 86.0 °F 98.3 °F 78.1 °F 77% 30.08 in 10.0 mi NNE 12.7 mph - N/A   Scattered Clouds
12:54 PM 86.0 °F 98.3 °F 78.1 °F 77% 30.06 in 10.0 mi NE 16.1 mph - 0.00 in   Partly Cloudy
1:54 PM 86.0 °F 98.3 °F 78.1 °F 77% 30.04 in 10.0 mi NNE 10.4 mph - N/A   Scattered Clouds
2:54 PM 84.9 °F 97.5 °F 79.0 °F 82% 30.03 in 10.0 mi NE 11.5 mph - N/A   Scattered Clouds
3:54 PM 84.9 °F 97.5 °F 79.0 °F 82% 30.03 in 10.0 mi NE 12.7 mph 16.1 mph 0.00 in   Scattered Clouds
4:54 PM 81.0 °F 87.9 °F 77.0 °F 88% 30.03 in 10.0 mi NE 9.2 mph - N/A   Scattered Clouds
5:54 PM 79.0 °F - 73.9 °F 84% 30.04 in 10.0 mi North 6.9 mph - N/A   Scattered Clouds
6:54 PM 77.0 °F - 73.9 °F 90% 30.05 in 10.0 mi WNW 4.6 mph - N/A   Scattered Clouds
7:54 PM 75.9 °F - 73.9 °F 94% 30.06 in 10.0 mi West 5.8 mph - N/A   Mostly Cloudy
8:54 PM 73.9 °F - 73.9 °F 100% 30.08 in 10.0 mi West 3.5 mph - N/A   Clear
9:54 PM 71.1 °F - 71.1 °F 100% 30.10 in 10.0 mi SE 5.8 mph - N/A   Clear
10:54 PM 72.0 °F - 72.0 °F 100% 30.09 in 10.0 mi ESE 5.8 mph - N/A   Overcast
11:54 PM 70.0 °F - 70.0 °F 100% 30.08 in 10.0 mi South 3.5 mph - N/A   Partly Cloudy